User: anonymous   Login
Location: Unspecified
(0.0000°N, 0.0000°E)
Time: 02:44:17
(UTC+00:00)
Language:

Galileo 5 - Orbit

View from above orbital plane
View from above orbital plane
View from above satellite
View from above satellite

Ground track
Ground track

The orbit data is extracted from the following two-line orbital elements,

1 40128U 14050A   19052.52913711 -.00000093 +00000-0 +00000-0 0  9994
2 40128 050.5498 020.6155 1659674 083.7853 294.7737 01.85519078028765
Epoch (UTC): 21 February 2019 12:41:57
Eccentricity: 0.1659674
inclination: 50.5498°
perigee height: 16956 km
apogee height: 26242 km
right ascension of ascending node: 20.6155°
argument of perigee: 83.7853°
revolutions per day: 1.85519078
mean anomaly at epoch: 294.7737°
orbit number at epoch: 2876

The dashed part of the orbit path shows where the satellite is in the earth's shadow,  

DLR